Location: Kirkcaldy
(50.3333°N, 113.2333°W)
Time: 03:28:42
(UTC+00:00)

BlueWalker 3 - Visible Passes

Search period start: 29 May 2023 00:00
Search period end: 08 June 2023 00:00
Orbit: 495 x 512 km, 53.2° (Epoch: 28 May)

Date Brightness Start Highest point End Pass type
(mag) Time Alt. Az. Time Alt. Az. Time Alt. Az.
29 May 1.8 05:40:33 10° WSW 05:44:23 76° SSE 05:48:16 10° ENE visible
29 May 2.6 07:19:16 10° W 07:23:05 55° N 07:26:56 10° ENE visible
29 May 2.2 08:58:01 10° WNW 09:01:55 73° NNE 09:05:49 10° ESE visible
29 May 2.5 10:36:42 10° WNW 10:40:18 37° SW 10:43:55 10° SSE visible
30 May 1.8 05:20:12 10° WSW 05:24:03 77° SSE 05:27:56 10° ENE visible
30 May 2.7 06:58:56 10° W 07:02:45 55° N 07:06:36 10° ENE visible
30 May 2.1 08:37:41 10° WNW 08:41:35 74° NNE 08:45:29 10° ESE visible
30 May 2.5 10:16:22 10° WNW 10:19:58 36° SW 10:23:33 10° SSE visible
31 May 1.8 04:59:52 10° WSW 05:03:43 78° SSE 05:07:36 10° ENE visible
31 May 2.7 06:38:36 10° W 06:42:25 55° N 06:46:15 10° ENE visible
31 May 2.1 08:17:21 10° WNW 08:21:14 74° NNE 08:25:09 10° ESE visible
31 May 2.5 09:56:03 10° WNW 09:59:36 35° SW 10:03:11 10° SSE visible
01 Jun 1.8 04:39:31 10° WSW 04:43:22 80° SSE 04:47:15 10° ENE visible
01 Jun 2.7 06:18:16 10° W 06:22:04 55° N 06:25:55 10° ENE visible
01 Jun 2.1 07:57:00 10° WNW 08:00:53 75° NNE 08:04:48 10° ESE visible
01 Jun 2.5 09:35:42 10° WNW 09:39:15 34° SW 09:42:48 10° SSE visible
02 Jun 1.9 04:19:10 10° WSW 04:23:00 81° SSE 04:26:53 10° ENE visible
02 Jun 2.7 05:57:55 10° W 06:01:44 55° N 06:05:33 10° ENE visible
02 Jun 2.1 07:36:39 10° WNW 07:40:32 76° NNE 07:44:26 10° ESE visible
02 Jun 2.6 09:15:22 10° WNW 09:18:54 33° SW 09:22:25 10° SSE visible
03 Jun 2.7 05:37:34 10° W 05:41:22 55° N 05:45:12 10° ENE visible
03 Jun 2.0 07:16:17 10° WNW 07:20:11 77° NNE 07:24:05 10° ESE visible
03 Jun 2.6 08:55:01 10° WNW 08:58:31 33° SW 08:59:41 27° S visible
04 Jun 2.7 05:17:12 10° W 05:21:00 54° N 05:24:50 10° ENE visible
04 Jun 2.0 06:55:56 10° WNW 06:59:48 78° NNE 07:03:41 10° ESE visible
04 Jun 2.6 08:34:39 10° W 08:38:08 32° SW 08:38:17 32° SSW visible
05 Jun 2.7 04:56:50 10° W 05:00:38 54° N 05:04:27 10° ENE visible
05 Jun 2.0 06:35:33 10° WNW 06:39:26 79° NNE 06:42:55 13° ESE visible
05 Jun 2.8 08:14:18 10° W 08:17:32 31° SW 08:17:32 31° SW visible
06 Jun 2.7 04:36:28 10° W 04:40:16 54° N 04:44:05 10° ENE visible
06 Jun 2.0 06:15:10 10° WNW 06:19:03 80° NNE 06:22:25 13° ESE visible
06 Jun 2.8 07:53:55 10° W 07:57:04 30° SW 07:57:04 30° SW visible
07 Jun 2.7 04:16:05 10° W 04:19:53 54° N 04:23:42 10° ENE visible
07 Jun 2.0 05:54:47 10° WNW 05:58:40 81° NNE 06:02:06 13° ESE visible
07 Jun 2.9 07:33:33 10° W 07:36:45 30° SW 07:36:45 30° SW visible
